[[{"header":{"parameterUnit":"m.s-1","parameterCategory":1,"la1":30.2991,"la2":30.254,"lo1":-89.0895,"lo2":-89.0444,"dy":0.0017,"dx":0.0017,"nx":28,"ny":28,"refTime":"2025-06-13T09:00:00:Z","depth":0,"parameterNumber":2,"parameterNumberName":"U-component_of_WINDS"},"data":[0,0,0,0,0,0,0,0,0,0,0,0,0,0,0,0,0,0,0,0,0,0,0,0,0,0,0,0,0,0,0,0,0,0,0,0,0,0,0,0,0,0,0,0,0,0,0,0,0,0,0,0,0,0,0,0,0,0,-0.6646,-0.6647,0,-0.6741,-0.6742,-0.6743,-0.6786,-0.6786,-0.6786,-0.6786,-0.6885,-0.6888,-0.6891,0,0,0,0,0,0,0,0,0,0,0,0,0,-0.6502,-0.6505,-0.6646,-0.6647,-0.6648,-0.6741,-0.6742,-0.6744,-0.6786,-0.6786,-0.6786,-0.6786,-0.6884,-0.6888,-0.6891,0,0,0,0,0,0,0,0,0,0,0,0,0,-0.6578,-0.6506,-0.6645,-0.668,-0.6684,-0.6741,-0.6742,-0.6744,-0.6786,-0.6786,-0.6786,-0.6785,-0.6883,-0.6887,-0.6891,-0.6921,0,0,-0.6904,-0.6906,0,0,0,0,0,0,0,0,-0.6574,-0.6583,-0.6674,-0.6678,-0.6683,-0.6751,-0.6729,-0.6803,-0.6786,-0.6747,-0.6786,-0.6785,-0.6841,-0.6849,-0.6867,-0.6926,-0.693,-0.6904,-0.6907,-0.6909,-0.691,0,0,0,0,0,0,0,-0.6568,-0.6579,-0.6684,-0.6675,-0.6681,-0.6692,-0.6703,-0.6743,-0.6794,-0.6751,-0.6754,-0.6765,-0.6843,-0.6863,-0.687,-0.6931,-0.6904,-0.6908,-0.6911,-0.6912,-0.702,-0.7021,0,0,0,0,0,0,-0.6557,-0.6575,-0.6681,-0.6686,-0.6626,-0.6695,-0.6707,-0.673,-0.6794,-0.6803,-0.6765,-0.6766,-0.6856,-0.6865,-0.6873,-0.6913,-0.6909,-0.6913,-0.6915,-0.702,-0.702,-0.7021,0,0,0,0,0,0,-0.6554,-0.6566,-0.6677,-0.6632,-0.6646,-0.6697,-0.6723,-0.6732,-0.6751,-0.6804,-0.6814,-0.6775,-0.6856,-0.6867,-0.6909,-0.6917,-0.6914,-0.6918,-0.702,-0.702,-0.7021,-0.6992,0,0,0,0,0,0,-0.6549,-0.6565,-0.6576,-0.6631,-0.6649,-0.671,-0.6723,-0.6734,-0.6758,-0.6761,-0.6817,-0.6826,-0.6857,-0.6902,-0.6913,-0.6923,-0.6922,-0.7019,-0.702,-0.702,-0.6992,-0.6991,-0.699,0,0,0,0,0,-0.6544,-0.6564,-0.6576,-0.6588,-0.6663,-0.671,-0.672,-0.6755,-0.6758,-0.6771,-0.6805,-0.6824,-0.6914,-0.6906,-0.6919,-0.693,-0.7019,-0.702,-0.702,-0.6993,-0.6991,-0.699,0,0,0,0,0,0,-0.6508,-0.6572,-0.6586,-0.6624,-0.6661,-0.6717,-0.6733,-0.6752,-0.679,-0.6791,-0.6833,-0.6846,-0.6884,-0.6911,-0.6901,-0.6962,-0.6968,-0.6972,-0.6943,-0.6942,-0.6941,-0.6934,-0.6925,0,0,0,0,0,-0.6504,-0.6536,-0.659,-0.6619,-0.6637,-0.6682,-0.6703,-0.6727,-0.6768,-0.6784,-0.6821,-0.686,-0.6898,-0.6922,-0.6959,-0.6996,-0.701,-0.701,-0.7009,-0.7008,-0.7011,-0.7034,-0.7035,-0.7024,-0.7024,-0.7024,0,0,-0.6497,-0.6536,-0.6554,-0.6613,-0.6644,-0.6677,-0.6695,-0.6729,-0.6754,-0.6789,-0.6831,-0.6859,-0.6906,-0.6946,-0.6965,-0.697,-0.7017,-0.7009,-0.7008,-0.7011,-0.7035,-0.7036,-0.7037,-0.7024,-0.7024,-0.7024,0,0,-0.6501,-0.6533,-0.6561,-0.6592,-0.664,-0.667,-0.6677,-0.673,-0.6751,-0.6793,-0.682,-0.6851,-0.6915,-0.6947,-0.6972,-0.6989,-0.7009,-0.7,-0.6996,-0.7018,-0.7019,-0.702,-0.7027,-0.7028,-0.7003,-0.7003,-0.7003,0,-0.6486,-0.6536,-0.6573,-0.6606,-0.6631,-0.6664,-0.6693,-0.6723,-0.678,-0.6797,-0.6802,-0.6882,-0.6916,-0.6964,-0.6969,-0.6987,-0.6997,-0.6994,-0.7015,-0.7017,-0.7018,-0.7025,-0.7028,-0.7001,-0.7001,-0.7002,-0.7002,0,-0.6517,-0.6551,-0.6568,-0.6622,-0.665,-0.668,-0.6722,-0.6746,-0.6768,-0.6797,-0.6841,-0.6882,-0.6929,-0.6943,-0.6964,-0.6994,-0.6996,-0.7007,-0.7014,-0.7017,-0.7025,-0.7028,-0.6999,-0.7,-0.7,-0.7001,0,0,-0.65,-0.6575,-0.658,-0.6606,-0.6661,-0.6689,-0.6722,-0.6767,-0.6787,-0.6826,-0.6855,-0.6909,-0.692,-0.6948,-0.6973,-0.6992,-0.7005,-0.7002,-0.7004,-0.7001,-0.7042,-0.7033,-0.7036,-0.7018,-0.7019,-0.7019,-0.7038,0,-0.6512,-0.6571,-0.6605,-0.6651,-0.6684,-0.6716,-0.6745,-0.6783,-0.6812,-0.6845,-0.6877,-0.6914,-0.6926,-0.6943,-0.6964,-0.6999,-0.7014,-0.6998,-0.7046,-0.7048,-0.7034,-0.704,-0.7031,-0.7046,-0.7041,-0.7042,-0.7042,0,-0.6534,-0.6572,-0.662,-0.6673,-0.6688,-0.6713,-0.6758,-0.6789,-0.6833,-0.6853,-0.6885,-0.691,-0.6947,-0.6951,-0.7003,-0.6992,-0.7014,-0.7034,-0.7036,-0.7042,-0.7045,-0.7046,-0.7052,-0.7055,-0.7047,-0.7047,-0.7046,0,-0.6517,-0.6581,-0.6618,-0.6639,-0.6702,-0.6719,-0.6746,-0.6789,-0.6815,-0.6855,-0.6872,-0.6915,-0.6939,-0.6973,-0.701,-0.7009,-0.7058,-0.7065,-0.7077,-0.7076,-0.7086,-0.7085,-0.7096,-0.7099,-0.7099,-0.7099,-0.7099,0,-0.6527,-0.6556,-0.6612,-0.6635,-0.6669,-0.6708,-0.6741,-0.677,-0.6809,-0.684,-0.6871,-0.6899,-0.6946,-0.698,-0.7009,-0.7048,-0.7059,-0.7077,-0.7084,-0.7074,-0.7072,-0.7089,-0.7089,-0.71,-0.71,-0.7099,-0.7099,0,-0.6515,-0.6553,-0.6596,-0.6652,-0.6667,-0.6689,-0.6738,-0.6762,-0.6793,-0.6831,-0.6842,-0.6891,-0.6932,-0.6973,-0.7029,-0.7049,-0.7088,-0.7098,-0.7073,-0.7077,-0.7086,-0.7085,-0.7109,-0.7115,-0.7114,-0.7114,-0.7113,0,-0.6518,-0.6541,-0.66,-0.6622,-0.6648,-0.6683,-0.671,-0.675,-0.6776,-0.6829,-0.6847,-0.6891,-0.6928,-0.6994,-0.7035,-0.7078,-0.7089,-0.7095,-0.7096,-0.7085,-0.709,-0.7088,-0.7091,-0.7094,-0.7094,-0.7093,-0.7093,0,-0.6522,-0.654,-0.6576,-0.6619,-0.665,-0.6686,-0.6723,-0.674,-0.6787,-0.6815,-0.6858,-0.6887,-0.6945,-0.6988,-0.7037,-0.7066,-0.7088,-0.7093,-0.7098,-0.7088,-0.7073,-0.7082,-0.707,-0.7092,-0.7092,-0.7092,-0.7092,-0.7092,-0.6518,-0.654,-0.6585,-0.6624,-0.6657,-0.6691,-0.6717,-0.6751,-0.6787,-0.6837,-0.6859,-0.6902,-0.6947,-0.7014,-0.7043,-0.7078,-0.7083,-0.709,-0.7092,-0.7094,-0.7092,-0.7067,-0.7087,-0.7087,-0.7087,-0.7087,-0.7087,0,-0.6523,-0.6554,-0.659,-0.6641,-0.6672,-0.669,-0.6733,-0.6758,-0.6796,-0.6835,-0.6872,-0.6921,-0.6964,-0.7009,-0.7054,-0.7074,-0.7085,-0.7085,-0.7084,-0.709,-0.7084,-0.7075,-0.7075,-0.7075,-0.7075,-0.7075,-0.7075,-0.7075,-0.653,-0.6568,-0.6592,-0.6648,-0.6678,-0.6721,-0.6744,-0.6776,-0.6808,-0.6862,-0.6897,-0.6926,-0.6968,-0.7017,-0.7057,-0.707,-0.7085,-0.7082,-0.7096,-0.709,-0.7091,-0.7091,-0.7083,-0.7084,-0.7084,-0.71,-0.71,-0.71]},{"header":{"parameterUnit":"m.s-1","parameterCategory":1,"la1":30.2991,"la2":30.254,"lo1":-89.0895,"lo2":-89.0444,"dy":0.0017,"dx":0.0017,"nx":28,"ny":28,"refTime":"2025-06-13T09:00:00:Z","depth":0,"parameterNumber":3,"parameterNumberName":"V-component_of_WINDS"},"data":[0,0,0,0,0,0,0,0,0,0,0,0,0,0,0,0,0,0,0,0,0,0,0,0,0,0,0,0,0,0,0,0,0,0,0,0,0,0,0,0,0,0,0,0,0,0,0,0,0,0,0,0,0,0,0,0,0,0,5.02,5.0201,0,5.0284,5.0285,5.0286,5.0226,5.0224,5.0221,5.0218,5.0299,5.0304,5.0308,0,0,0,0,0,0,0,0,0,0,0,0,0,4.9982,4.9986,5.02,5.0201,5.0202,5.0284,5.0285,5.0286,5.0227,5.0223,5.022,5.0217,5.0298,5.0303,5.0309,0,0,0,0,0,0,0,0,0,0,0,0,0,5.0072,4.9988,5.02,5.0182,5.0182,5.0283,5.0285,5.0286,5.0227,5.0223,5.0219,5.0216,5.0296,5.0303,5.0309,5.0431,0,0,5.033,5.0333,0,0,0,0,0,0,0,0,5.0067,5.008,5.0184,5.0184,5.0183,5.0241,5.0237,5.0334,5.0228,5.021,5.0218,5.0214,5.0282,5.029,5.0314,5.0435,5.0438,5.0331,5.0335,5.0338,5.034,0,0,0,0,0,0,0,5.0061,5.0076,5.0233,5.0185,5.0185,5.0168,5.0177,5.0256,5.0267,5.0211,5.0207,5.0218,5.0281,5.0308,5.0316,5.0439,5.0331,5.0337,5.0341,5.0344,5.0661,5.0665,0,0,0,0,0,0,5.0057,5.0072,5.023,5.0235,5.0114,5.0175,5.0185,5.0226,5.0266,5.0269,5.0221,5.0215,5.0298,5.0308,5.0319,5.0461,5.0338,5.0345,5.0349,5.0656,5.0661,5.0666,0,0,0,0,0,0,5.0053,5.0072,5.0227,5.0152,5.0171,5.0183,5.023,5.023,5.0256,5.0274,5.0275,5.0247,5.0295,5.0309,5.0403,5.0463,5.0348,5.0354,5.0651,5.0658,5.0664,5.075,0,0,0,0,0,0,5.0047,5.0071,5.0119,5.0154,5.0175,5.0312,5.0234,5.0234,5.0269,5.0261,5.0298,5.03,5.0293,5.0393,5.041,5.0471,5.0359,5.0646,5.0654,5.0662,5.0741,5.0758,5.0773,0,0,0,0,0,5.0039,5.0139,5.0121,5.0141,5.0236,5.0316,5.0328,5.0319,5.0274,5.0321,5.0332,5.0299,5.0455,5.0403,5.0422,5.0486,5.0642,5.0652,5.0661,5.0734,5.0755,5.0772,0,0,0,0,0,0,5.0109,5.0143,5.0124,5.0239,5.0275,5.0306,5.0365,5.0341,5.039,5.0381,5.0366,5.0375,5.0474,5.0489,5.0431,5.0604,5.0541,5.0555,5.059,5.061,5.0625,5.0618,5.0365,0,0,0,0,0,5.0138,5.0202,5.0228,5.0326,5.0346,5.0352,5.0387,5.0377,5.0413,5.0428,5.0446,5.0481,5.0537,5.0574,5.0628,5.0744,5.0749,5.0797,5.0812,5.0825,5.0836,5.0896,5.0917,5.0698,5.0698,5.0697,0,0,5.0198,5.0224,5.0265,5.0341,5.0368,5.0432,5.0365,5.0437,5.0484,5.0438,5.0528,5.0543,5.058,5.0686,5.0733,5.0702,5.0898,5.0837,5.0847,5.0852,5.0908,5.0929,5.0947,5.0704,5.0703,5.0702,0,0,5.0339,5.0367,5.0451,5.048,5.0522,5.0525,5.0546,5.058,5.0588,5.0679,5.0645,5.07,5.0798,5.0826,5.0853,5.1004,5.0974,5.1021,5.1102,5.116,5.1178,5.1193,5.1244,5.1263,5.1033,5.1033,5.1033,0,5.0407,5.0505,5.0497,5.0571,5.0603,5.0567,5.065,5.0678,5.0734,5.0757,5.0721,5.0843,5.0866,5.0976,5.1013,5.1037,5.1057,5.1016,5.1176,5.1191,5.1205,5.1254,5.1274,5.1038,5.1038,5.1037,5.1037,0,5.0586,5.0654,5.0717,5.0774,5.0814,5.0892,5.0893,5.0934,5.0921,5.0928,5.1019,5.1045,5.1102,5.1128,5.1115,5.1236,5.1215,5.1178,5.1114,5.1232,5.1277,5.1296,5.1046,5.1044,5.1043,5.1041,0,0,5.0773,5.0824,5.0847,5.0871,5.0915,5.0966,5.1042,5.1099,5.1133,5.1173,5.1234,5.1318,5.1284,5.1315,5.1305,5.1357,5.1472,5.1314,5.1314,5.134,5.1603,5.1628,5.165,5.1453,5.1457,5.146,5.1599,0,5.0915,5.1049,5.1043,5.1167,5.1228,5.1193,5.1259,5.1291,5.1299,5.1351,5.1359,5.1417,5.137,5.1388,5.1438,5.1447,5.1524,5.1437,5.1507,5.151,5.1497,5.1675,5.1702,5.1833,5.1617,5.162,5.1622,0,5.1099,5.1146,5.1277,5.1309,5.1335,5.1394,5.1444,5.1495,5.153,5.1532,5.1566,5.1548,5.1621,5.1557,5.1657,5.1598,5.1626,5.1635,5.164,5.1644,5.1572,5.1682,5.1874,5.1893,5.1651,5.1648,5.1646,0,5.1219,5.1316,5.1406,5.1428,5.1469,5.1511,5.1529,5.1561,5.1595,5.1639,5.166,5.1711,5.1739,5.1778,5.1773,5.1727,5.1874,5.1809,5.1875,5.1875,5.1906,5.1904,5.2104,5.1928,5.1928,5.1928,5.1927,0,5.1377,5.1458,5.146,5.1515,5.1603,5.1595,5.1682,5.1695,5.1724,5.1779,5.1752,5.1804,5.1795,5.1847,5.1843,5.1925,5.1938,5.194,5.1937,5.1941,5.1941,5.1958,5.1948,5.1933,5.1932,5.1931,5.193,0,5.1526,5.1532,5.1627,5.1658,5.1667,5.1731,5.1756,5.1807,5.1813,5.1883,5.1899,5.1908,5.1967,5.1966,5.2033,5.203,5.213,5.2118,5.2119,5.2115,5.218,5.2173,5.2396,5.2424,5.2233,5.2235,5.2236,0,5.1626,5.1687,5.1725,5.1761,5.1782,5.1841,5.1875,5.1869,5.1905,5.1949,5.1994,5.2051,5.2096,5.2192,5.2202,5.2253,5.2241,5.2315,5.2248,5.2249,5.2239,5.2235,5.2239,5.2328,5.233,5.2332,5.2333,0,5.1801,5.1801,5.1853,5.1906,5.1948,5.1989,5.2026,5.2057,5.2054,5.2096,5.2157,5.2192,5.226,5.2316,5.2365,5.2381,5.2356,5.2355,5.2372,5.2375,5.2372,5.2372,5.2152,5.2349,5.2348,5.2346,5.2346,5.2345,5.1927,5.1979,5.2013,5.2072,5.2099,5.2135,5.2184,5.2196,5.2247,5.2303,5.2296,5.2363,5.2394,5.2457,5.2478,5.2529,5.2502,5.2528,5.2534,5.254,5.2546,5.2366,5.2538,5.2537,5.2537,5.2536,5.2536,0,5.2099,5.2119,5.2173,5.2227,5.2272,5.2247,5.2287,5.2325,5.2385,5.2418,5.2463,5.2531,5.2585,5.26,5.2651,5.2689,5.2678,5.2702,5.2698,5.2702,5.2568,5.2547,5.271,5.271,5.271,5.271,5.271,5.271,5.2194,5.228,5.2283,5.2381,5.24,5.2467,5.2492,5.2523,5.2549,5.2627,5.2672,5.2682,5.2707,5.276,5.2807,5.281,5.2829,5.2857,5.2855,5.2729,5.2712,5.2695,5.2675,5.2862,5.2862,5.2984,5.2985,5.2986]}]]